CW7945 Weather Reports


time (UTC)temp
C
wind
direction
speed
KPH
gust
KPH
rain 1hr
cm
rain 24hr
cm
rain mn
cm
humidity
%
barometer
mb
20260506221516 20 248 3.2 14.5 0.00 0.41 0.41 83 1007.2
20260506220516 20 248 3.2 17.7 0.00 0.41 0.41 84 1007.2
20260506215516 20 0.0 6.4 0.00 0.41 0.41 84 1007.2
20260506214516 19 248 1.6 14.5 0.00 0.41 0.41 84 1007.2
20260506213516 19 248 1.6 14.5 0.00 0.41 0.41 85 1006.9
20260506212517 19 248 3.2 12.9 0.00 0.41 0.41 85 1006.9
20260506211516 18 0.0 8.0 0.00 0.41 0.41 86 1006.8
20260506210516 18 248 3.2 14.5 0.00 0.41 0.41 86 1006.9
20260506205517 18 248 1.6 14.5 0.00 0.41 0.41 85 1006.9
20260506204516 19 248 1.6 12.9 0.00 0.41 0.41 86 1006.8
20260506203516 18 248 3.2 17.7 0.00 0.41 0.41 86 1006.7
20260506202536 18 248 3.2 11.3 0.00 0.41 0.41 87 1006.7
20260506201516 18 248 1.6 9.7 0.00 0.41 0.41 88 1006.6
20260506200516 18 225 8.0 24.1 0.00 0.41 0.41 87 1006.8
20260506195516 18 248 4.8 16.1 0.00 0.41 0.41 89 1006.8
20260506194516 17 225 3.2 12.9 0.00 0.41 0.41 89 1007.0
20260506193516 17 248 3.2 14.5 0.00 0.41 0.41 90 1007.1
20260506192516 17 225 1.6 14.5 0.00 0.41 0.41 91 1007.3
20260506191516 17 248 1.6 16.1 0.00 0.41 0.41 92 1007.4
20260506190516 17 248 3.2 20.9 0.00 0.41 0.41 92 1007.3
20260506185516 17 0.0 9.7 0.00 0.41 0.41 92 1007.4
20260506184516 17 248 3.2 19.3 0.00 0.41 0.41 91 1007.7
20260506183516 17 248 1.6 6.4 0.00 0.41 0.41 90 1007.6
20260506182516 17 225 1.6 12.9 0.03 0.41 0.41 90 1007.7
20260506181536 17 248 1.6 14.5 0.03 0.41 0.41 91 1007.7
20260506180516 17 225 1.6 14.5 0.03 0.41 0.41 90 1007.7
20260506175536 17 225 6.4 25.7 0.03 0.41 0.41 90 1007.9
20260506174516 17 225 9.7 30.6 0.03 0.41 0.41 90 1007.9
20260506173516 17 225 6.4 25.7 0.03 0.41 0.41 91 1007.8
20260506172516 17 225 4.8 17.7 0.00 0.38 0.38 91 1008.1
20260506171516 17 248 6.4 27.4 0.03 0.38 0.38 91 1008.1
20260506170517 17 225 9.7 20.9 0.05 0.38 0.38 92 1008.1
20260506165516 17 225 8.0 22.5 0.08 0.38 0.38 92 1007.9
20260506164516 17 248 6.4 27.4 0.13 0.38 0.38 93 1007.9
20260506163516 16 225 3.2 17.7 0.18 0.38 0.38 93 1007.9
20260506162516 16 225 1.6 12.9 0.23 0.38 0.38 94 1008.2
20260506161516 16 0.0 6.4 0.25 0.36 0.36 94 1008.7
20260506160516 16 0.0 4.8 0.25 0.33 0.33 93 1009.1
20260506155516 16 0.0 0.0 0.23 0.30 0.30 92 1009.2
20260506154516 17 0.0 0.0 0.20 0.25 0.25 92 1009.4
20260506153536 17 0.0 0.0 0.18 0.20 0.20 91 1009.2
20260506152517 17 0.0 0.0 0.15 0.15 0.15 90 1009.4
20260506151517 17 0.0 0.0 0.10 0.10 0.10 89 1009.3
20260506150516 17 0.0 12.9 0.08 0.08 0.08 89 1009.2
20260506145516 17 248 1.6 14.5 0.08 0.08 0.08 87 1009.1
20260506144516 17 0.0 0.0 0.05 0.05 0.05 85 1009.2
20260506143517 18 248 6.4 17.7 0.03 0.03 0.03 83 1009.3
20260506142516 18 248 9.7 25.7 0.00 0.00 0.00 80 1009.4
20260506141517 19 248 11.3 22.5 0.00 0.00 0.00 77 1009.4
20260506140516 20 248 9.7 20.9 0.00 0.00 0.00 75 1009.2
20260506135516 20 225 4.8 17.7 0.00 0.00 0.00 75 1008.9
20260506134516 20 248 8.0 29.0 0.00 0.00 0.00 75 1009.1
20260506133516 19 248 4.8 12.9 0.00 0.00 0.00 76 1009.3
20260506132517 19 248 9.7 20.9 0.00 0.00 0.00 76 1009.2
20260506131516 19 248 8.0 29.0 0.00 0.00 0.00 76 1009.4
20260506130516 19 225 12.9 24.1 0.00 0.00 0.00 76 1009.6
20260506125516 19 248 3.2 19.3 0.00 0.00 0.00 76 1009.6
20260506124516 19 248 4.8 19.3 0.00 0.00 0.00 77 1009.5
20260506123516 18 225 4.8 19.3 0.00 0.00 0.00 78 1009.5
20260506122537 18 225 6.4 19.3 0.00 0.00 0.00 78 1009.2
20260506121516 18 225 6.4 17.7 0.00 0.00 0.00 78 1009.2
20260506120516 18 225 4.8 16.1 0.00 0.00 0.00 78 1009.4
20260506115516 18 248 4.8 17.7 0.00 0.00 0.00 79 1009.2
20260506114516 18 225 1.6 14.5 0.00 0.00 0.00 79 1009.4
20260506113516 18 225 9.7 22.5 0.00 0.00 0.00 79 1009.2
20260506112516 18 0.0 8.0 0.00 0.00 0.00 79 1009.4
20260506111536 18 225 1.6 16.1 0.00 0.00 0.00 79 1009.5
20260506110516 18 225 8.0 25.7 0.00 0.00 0.00 79 1009.2
20260506105516 18 225 4.8 20.9 0.00 0.00 0.00 79 1009.2
20260506104536 18 225 4.8 19.3 0.00 0.00 0.00 79 1009.0
20260506103516 18 225 6.4 17.7 0.00 0.00 0.00 80 1009.1
20260506102516 18 225 3.2 16.1 0.00 0.00 0.00 80 1009.0
20260506101536 18 225 3.2 19.3 0.00 0.00 0.00 80 1009.0
20260506100516 18 225 1.6 11.3 0.00 0.00 0.00 79 1009.1
20260506095516 18 225 3.2 14.5 0.00 0.00 0.00 79 1009.1
20260506094516 18 0.0 6.4 0.00 0.00 0.00 79 1009.0
20260506093516 18 248 4.8 14.5 0.00 0.00 0.00 79 1009.0
20260506092516 18 225 3.2 16.1 0.00 0.00 0.00 79 1009.0
20260506091516 18 225 4.8 14.5 0.00 0.00 0.00 79 1009.1
20260506090516 18 225 3.2 16.1 0.00 0.00 0.00 80 1009.1
20260506085516 18 225 1.6 8.0 0.00 0.00 0.00 80 1009.1
20260506084517 18 0.0 6.4 0.00 0.00 0.00 80 1009.2
20260506083517 18 0.0 8.0 0.00 0.00 0.00 80 1009.2
20260506082516 18 0.0 0.0 0.00 0.00 0.00 79 1009.2
20260506081516 18 180 1.6 17.7 0.00 0.00 0.00 78 1009.2
20260506080516 18 225 3.2 17.7 0.00 0.00 0.00 78 1009.2
20260506073516 19 225 4.8 20.9 0.00 0.00 0.00 76 1009.2
20260506072536 19 225 6.4 16.1 0.00 0.00 0.00 75 1009.3
20260506071516 20 225 9.7 20.9 0.00 0.00 0.00 74 1009.3
20260506070516 20 248 4.8 19.3 0.00 0.00 0.00 73 1009.3
20260506062516 20 248 4.8 14.5 0.00 0.00 0.00 71 1009.7
20260506061516 20 225 4.8 16.1 0.00 0.00 0.00 70 1009.8
20260506060516 20 225 3.2 14.5 0.00 0.00 0.00 70 1009.8
20260506050536 20 248 1.6 12.9 0.00 0.00 0.00 67 1010.4
20260506044516 20 248 4.8 12.9 0.00 0.00 0.00 66 1010.3
20260506043536 20 225 6.4 22.5 0.00 0.00 0.00 65 1010.3
20260506042516 20 248 8.0 16.1 0.00 0.00 0.00 65 1010.3
20260506041516 20 248 6.4 25.7 0.00 0.00 0.00 65 1010.3
20260506040516 20 248 11.3 17.7 0.00 0.00 0.00 65 1010.3
20260506040016 20 225 6.4 19.3 0.00 0.00 0.00 65 1010.2
20260506035036 21 225 11.3 25.7 0.00 0.00 0.00 65 1010.2
20260506034016 21 225 8.0 20.9 0.00 0.00 0.00 65 1010.1
20260506033016 21 225 11.3 22.5 0.00 0.00 0.00 64 1010.1
20260506032016 21 225 1.6 14.5 0.00 0.00 0.00 64 1010.0
20260506031016 21 225 6.4 19.3 0.00 0.00 0.00 64 1010.0
20260506030036 21 225 9.7 25.7 0.00 0.00 0.00 63 1010.0
20260506025016 21 225 8.0 22.5 0.00 0.00 0.00 62 1010.0
20260506024016 21 225 8.0 22.5 0.00 0.00 0.00 61 1010.2
20260506023016 22 225 6.4 17.7 0.00 0.00 0.00 59 1010.2
20260506022016 22 225 9.7 19.3 0.00 0.00 0.00 57 1010.0
20260506021036 22 248 6.4 17.7 0.00 0.00 0.00 56 1010.0
20260506020016 22 225 3.2 16.1 0.00 0.00 0.00 54 1010.1
20260506015016 23 225 6.4 14.5 0.00 0.00 0.00 51 1010.0
20260506014016 23 225 6.4 22.5 0.00 0.00 0.00 50 1009.9
20260506013056 23 203 8.0 19.3 0.00 0.00 0.00 49 1009.7
20260506012016 23 225 14.5 30.6 0.00 0.00 0.00 48 1009.6
20260506011016 23 225 9.7 24.1 0.00 0.00 0.00 47 1009.6
20260506010016 24 225 9.7 17.7 0.00 0.00 0.00 47 1009.5
20260506005016 24 225 8.0 24.1 0.00 0.00 0.00 47 1009.5
20260506004017 24 225 8.0 19.3 0.00 0.00 0.00 47 1009.3
20260506003016 24 225 11.3 22.5 0.00 0.00 0.00 47 1009.2
20260506002016 25 203 9.7 20.9 0.00 0.00 0.00 47 1009.1
20260506001016 25 225 9.7 20.9 0.00 0.00 0.00 47 1008.9
20260506000016 25 225 9.7 20.9 0.00 0.00 0.00 47 1008.9
20260505235036 25 225 8.0 22.5 0.00 0.00 0.00 46 1008.7
20260505234016 25 225 9.7 24.1 0.00 0.00 0.00 45 1008.7
20260505233016 25 225 8.0 17.7 0.00 0.00 0.00 44 1008.7
20260505232017 26 225 6.4 16.1 0.00 0.00 0.00 41 1008.6
20260505231016 26 248 11.3 24.1 0.00 0.00 0.00 40 1008.6
20260505230016 26 225 11.3 25.7 0.00 0.00 0.00 40 1008.5
20260505225017 26 225 11.3 22.5 0.00 0.00 0.00 39 1008.4
20260505224016 26 225 16.1 29.0 0.00 0.00 0.00 38 1008.3
20260505223016 27 248 11.3 25.7 0.00 0.00 0.00 38 1008.3